Data supplied by UK-AIR on 13/3/2019
All Data GMT hour ending 
Status: R =Ratified P=Provisional,P*=As supplied
,,Barnsley Gawber,,,,,,,,,,,,,,,,,,,,,,,
Date,time,"Nitric oxide",status,unit,"Nitrogen dioxide",status,unit,"Nitrogen oxides as nitrogen dioxide",status,unit,"Ozone",status,unit,"Sulphur dioxide",status,unit
 
01-01-2018,01:00,0.33195,R,ugm-3,4.82449,R,ugm-3,5.33347,R,ugm-3,59.47186,R,ugm-3,0.85706,R,ugm-3
01-01-2018,02:00,0.29046,R,ugm-3,4.69763,R,ugm-3,5.14299,R,ugm-3,60.86885,R,ugm-3,0.77136,R,ugm-3
01-01-2018,03:00,0.28008,R,ugm-3,3.18969,R,ugm-3,3.61914,R,ugm-3,61.06842,R,ugm-3,1.02847,R,ugm-3
01-01-2018,04:00,0.18672,R,ugm-3,2.61854,R,ugm-3,2.90484,R,ugm-3,62.11616,R,ugm-3,0.89991,R,ugm-3
01-01-2018,05:00,0.18672,R,ugm-3,2.14233,R,ugm-3,2.42863,R,ugm-3,64.81036,R,ugm-3,1.02847,R,ugm-3
01-01-2018,06:00,0.18672,R,ugm-3,2.42806,R,ugm-3,2.71436,R,ugm-3,64.41122,R,ugm-3,0.77136,R,ugm-3
01-01-2018,07:00,0.28008,R,ugm-3,2.61825,R,ugm-3,3.04770,R,ugm-3,63.56305,R,ugm-3,0.57852,R,ugm-3
01-01-2018,08:00,0.40456,R,ugm-3,4.23695,R,ugm-3,4.85727,R,ugm-3,63.41337,R,ugm-3,0.96419,R,ugm-3
01-01-2018,09:00,0.68464,R,ugm-3,7.56950,R,ugm-3,8.61927,R,ugm-3,59.02283,R,ugm-3,0.51424,R,ugm-3
01-01-2018,10:00,1.05809,R,ugm-3,7.61596,R,ugm-3,9.23834,R,ugm-3,57.17681,R,ugm-3,0.83563,R,ugm-3
01-01-2018,11:00,1.49377,R,ugm-3,9.04322,R,ugm-3,11.33363,R,ugm-3,55.63014,R,ugm-3,0.64280,R,ugm-3
01-01-2018,12:00,1.49377,R,ugm-3,8.42415,R,ugm-3,10.71456,R,ugm-3,56.52820,R,ugm-3,0.83563,R,ugm-3
01-01-2018,13:00,1.64937,R,ugm-3,9.13798,R,ugm-3,11.66697,R,ugm-3,56.17896,R,ugm-3,0.77136,R,ugm-3
01-01-2018,14:00,1.61825,R,ugm-3,8.66187,R,ugm-3,11.14315,R,ugm-3,57.72562,R,ugm-3,0.96419,R,ugm-3
01-01-2018,15:00,1.36929,R,ugm-3,8.75788,R,ugm-3,10.85742,R,ugm-3,57.07702,R,ugm-3,1.34987,R,ugm-3
01-01-2018,16:00,1.12033,R,ugm-3,9.52058,R,ugm-3,11.23839,R,ugm-3,54.03358,R,ugm-3,0.96419,R,ugm-3
01-01-2018,17:00,0.93360,R,ugm-3,9.52116,R,ugm-3,10.95266,R,ugm-3,58.32433,R,ugm-3,0.83563,R,ugm-3
01-01-2018,18:00,0.49792,R,ugm-3,7.99866,R,ugm-3,8.76213,R,ugm-3,66.35703,R,ugm-3,0.57852,R,ugm-3
01-01-2018,19:00,0.34232,R,ugm-3,5.33241,R,ugm-3,5.85730,R,ugm-3,70.44821,R,ugm-3,0.83563,R,ugm-3
01-01-2018,20:00,0.24896,R,ugm-3,5.38032,R,ugm-3,5.76206,R,ugm-3,62.51530,R,ugm-3,0.57852,R,ugm-3
01-01-2018,21:00,0.28008,R,ugm-3,3.80875,R,ugm-3,4.23821,R,ugm-3,60.22025,R,ugm-3,0.57852,R,ugm-3
01-01-2018,22:00,0.24896,R,ugm-3,3.42789,R,ugm-3,3.80962,R,ugm-3,62.16606,R,ugm-3,1.02847,R,ugm-3
01-01-2018,23:00,0.21784,R,ugm-3,2.99940,R,ugm-3,3.33342,R,ugm-3,64.71057,R,ugm-3,0.77136,R,ugm-3
01-01-2018,24:00,0.24896,R,ugm-3,2.95169,R,ugm-3,3.33342,R,ugm-3,64.91014,R,ugm-3,0.44996,R,ugm-3
02-01-2018,01:00,0.16602,R,ugm-3,2.92064,R,ugm-3,3.17520,R,ugm-3,61.86670,R,ugm-3,0.42859,R,ugm-3
02-01-2018,02:00,0.24902,R,ugm-3,4.38096,R,ugm-3,4.76279,R,ugm-3,60.13709,R,ugm-3,0.85719,R,ugm-3
02-01-2018,03:00,0.21790,R,ugm-3,2.80934,R,ugm-3,3.14344,R,ugm-3,60.61939,R,ugm-3,0.96433,R,ugm-3
02-01-2018,04:00,0.18677,R,ugm-3,2.71419,R,ugm-3,3.00056,R,ugm-3,61.11831,R,ugm-3,1.02862,R,ugm-3
02-01-2018,05:00,0.24902,R,ugm-3,3.47603,R,ugm-3,3.85786,R,ugm-3,59.77122,R,ugm-3,0.70718,R,ugm-3
02-01-2018,06:00,0.40466,R,ugm-3,6.14269,R,ugm-3,6.76317,R,ugm-3,54.28304,R,ugm-3,0.96433,R,ugm-3
02-01-2018,07:00,1.30737,R,ugm-3,10.80731,R,ugm-3,12.81191,R,ugm-3,51.13981,R,ugm-3,0.83575,R,ugm-3
02-01-2018,08:00,3.36181,R,ugm-3,20.85016,R,ugm-3,26.00485,R,ugm-3,45.40218,R,ugm-3,0.77147,R,ugm-3
02-01-2018,09:00,7.50181,R,ugm-3,33.64867,R,ugm-3,45.15128,R,ugm-3,39.11572,R,ugm-3,1.02862,R,ugm-3
02-01-2018,10:00,4.32677,R,ugm-3,24.41913,R,ugm-3,31.05341,R,ugm-3,43.70583,R,ugm-3,1.35006,R,ugm-3
02-01-2018,11:00,4.01549,R,ugm-3,19.32395,R,ugm-3,25.48095,R,ugm-3,46.35013,R,ugm-3,1.22149,R,ugm-3
02-01-2018,12:00,4.54466,R,ugm-3,25.13284,R,ugm-3,32.10123,R,ugm-3,41.71013,R,ugm-3,0.64289,R,ugm-3
02-01-2018,13:00,4.85594,R,ugm-3,29.94226,R,ugm-3,37.38793,R,ugm-3,33.42798,R,ugm-3,0.77147,R,ugm-3
02-01-2018,14:00,4.14000,R,ugm-3,22.27648,R,ugm-3,28.62439,R,ugm-3,36.47142,R,ugm-3,0.70718,R,ugm-3
02-01-2018,15:00,4.32677,R,ugm-3,20.60890,R,ugm-3,27.24318,R,ugm-3,40.36303,R,ugm-3,1.09291,R,ugm-3
02-01-2018,16:00,1.96105,R,ugm-3,13.56762,R,ugm-3,16.57452,R,ugm-3,51.83831,R,ugm-3,0.90004,R,ugm-3
02-01-2018,17:00,1.99218,R,ugm-3,13.61514,R,ugm-3,16.66978,R,ugm-3,53.78412,R,ugm-3,0.83575,R,ugm-3
02-01-2018,18:00,1.74316,R,ugm-3,10.32962,R,ugm-3,13.00243,R,ugm-3,60.17036,R,ugm-3,0.64289,R,ugm-3
02-01-2018,19:00,1.40075,R,ugm-3,9.28292,R,ugm-3,11.43071,R,ugm-3,63.16391,R,ugm-3,0.51431,R,ugm-3
02-01-2018,20:00,1.61865,R,ugm-3,15.47384,R,ugm-3,17.95573,R,ugm-3,57.57595,R,ugm-3,1.15720,R,ugm-3
02-01-2018,21:00,1.64978,R,ugm-3,22.71319,R,ugm-3,25.24280,R,ugm-3,48.94454,R,ugm-3,0.64289,R,ugm-3
02-01-2018,22:00,0.77820,R,ugm-3,8.52288,R,ugm-3,9.71610,R,ugm-3,55.13121,R,ugm-3,0.90004,R,ugm-3
02-01-2018,23:00,0.43579,R,ugm-3,4.52324,R,ugm-3,5.19145,R,ugm-3,60.96864,R,ugm-3,1.02862,R,ugm-3
02-01-2018,24:00,0.31128,R,ugm-3,3.80923,R,ugm-3,4.28652,R,ugm-3,66.95574,R,ugm-3,0.90004,R,ugm-3
03-01-2018,01:00,0.12454,R,ugm-3,3.49286,R,ugm-3,3.68382,R,ugm-3,66.32376,R,ugm-3,1.11450,R,ugm-3
03-01-2018,02:00,0.20757,R,ugm-3,4.19123,R,ugm-3,4.50950,R,ugm-3,71.71215,R,ugm-3,1.20023,R,ugm-3
03-01-2018,03:00,0.12454,R,ugm-3,3.09589,R,ugm-3,3.28686,R,ugm-3,72.44391,R,ugm-3,0.57868,R,ugm-3
03-01-2018,04:00,0.15568,R,ugm-3,2.47653,R,ugm-3,2.71523,R,ugm-3,72.74327,R,ugm-3,0.51438,R,ugm-3
03-01-2018,05:00,0.15568,R,ugm-3,2.52416,R,ugm-3,2.76286,R,ugm-3,69.89939,R,ugm-3,0.77158,R,ugm-3
03-01-2018,06:00,0.31136,R,ugm-3,2.80945,R,ugm-3,3.28686,R,ugm-3,68.75187,R,ugm-3,0.90017,R,ugm-3
03-01-2018,07:00,0.43590,R,ugm-3,3.71411,R,ugm-3,4.38248,R,ugm-3,68.00348,R,ugm-3,1.28596,R,ugm-3
03-01-2018,08:00,0.59157,R,ugm-3,5.38083,R,ugm-3,6.28790,R,ugm-3,66.25724,R,ugm-3,0.83587,R,ugm-3
03-01-2018,09:00,0.59157,R,ugm-3,5.80955,R,ugm-3,6.71662,R,ugm-3,65.85810,R,ugm-3,1.09307,R,ugm-3
03-01-2018,10:00,0.52930,R,ugm-3,6.47666,R,ugm-3,7.28825,R,ugm-3,63.81251,R,ugm-3,0.90017,R,ugm-3
03-01-2018,11:00,0.87179,R,ugm-3,7.09477,R,ugm-3,8.43150,R,ugm-3,63.51315,R,ugm-3,0.96447,R,ugm-3
03-01-2018,12:00,0.84066,R,ugm-3,6.38034,R,ugm-3,7.66933,R,ugm-3,63.91229,R,ugm-3,0.96447,R,ugm-3
03-01-2018,13:00,0.87179,R,ugm-3,7.04713,R,ugm-3,8.38387,R,ugm-3,63.56305,R,ugm-3,0.90017,R,ugm-3
03-01-2018,14:00,1.40110,R,ugm-3,7.90279,R,ugm-3,10.05111,R,ugm-3,63.31358,R,ugm-3,1.15737,R,ugm-3
03-01-2018,15:00,1.15201,R,ugm-3,8.95161,R,ugm-3,10.71801,R,ugm-3,59.47186,R,ugm-3,,,
03-01-2018,16:00,1.27656,R,ugm-3,9.33228,R,ugm-3,11.28964,R,ugm-3,59.62154,R,ugm-3,,,
03-01-2018,17:00,1.33883,R,ugm-3,10.90404,R,ugm-3,12.95688,R,ugm-3,58.62369,R,ugm-3,,,
03-01-2018,18:00,1.71245,R,ugm-3,12.33185,R,ugm-3,14.95758,R,ugm-3,55.87960,R,ugm-3,,,
03-01-2018,19:00,1.05861,R,ugm-3,10.61917,R,ugm-3,12.24235,R,ugm-3,56.77767,R,ugm-3,,,
03-01-2018,20:00,0.84066,R,ugm-3,8.66685,R,ugm-3,9.95584,R,ugm-3,58.62369,R,ugm-3,,,
03-01-2018,21:00,0.68498,R,ugm-3,7.42884,R,ugm-3,8.47914,R,ugm-3,58.37423,R,ugm-3,,,
03-01-2018,22:00,0.71612,R,ugm-3,6.61894,R,ugm-3,7.71697,R,ugm-3,59.07272,R,ugm-3,,,
03-01-2018,23:00,0.56044,R,ugm-3,5.90493,R,ugm-3,6.76425,R,ugm-3,58.47401,R,ugm-3,,,
03-01-2018,24:00,0.34249,R,ugm-3,5.14349,R,ugm-3,5.66864,R,ugm-3,59.32218,R,ugm-3,,,
04-01-2018,01:00,0.41524,R,ugm-3,4.31820,R,ugm-3,4.95490,R,ugm-3,61.00190,R,ugm-3,,,
04-01-2018,02:00,0.49829,R,ugm-3,6.41421,R,ugm-3,7.17825,R,ugm-3,61.60061,R,ugm-3,0.68595,R,ugm-3
04-01-2018,03:00,0.21800,R,ugm-3,5.23999,R,ugm-3,5.57426,R,ugm-3,59.82111,R,ugm-3,0.90030,R,ugm-3
04-01-2018,04:00,0.31143,R,ugm-3,5.90667,R,ugm-3,6.38420,R,ugm-3,54.63229,R,ugm-3,1.09323,R,ugm-3
04-01-2018,05:00,0.59172,R,ugm-3,5.42926,R,ugm-3,6.33655,R,ugm-3,57.22670,R,ugm-3,0.77169,R,ugm-3
04-01-2018,06:00,0.71629,R,ugm-3,9.43086,R,ugm-3,10.52916,R,ugm-3,53.43487,R,ugm-3,0.70738,R,ugm-3
04-01-2018,07:00,3.64375,R,ugm-3,24.47588,R,ugm-3,30.06289,R,ugm-3,41.26110,R,ugm-3,1.02892,R,ugm-3
04-01-2018,08:00,6.19749,R,ugm-3,42.90488,R,ugm-3,52.40757,R,ugm-3,23.89851,R,ugm-3,1.09323,R,ugm-3
04-01-2018,09:00,5.54349,R,ugm-3,34.56960,R,ugm-3,43.06949,R,ugm-3,31.38238,R,ugm-3,0.90030,R,ugm-3
04-01-2018,10:00,3.27003,R,ugm-3,30.09909,R,ugm-3,35.11307,R,ugm-3,42.75787,R,ugm-3,1.35046,R,ugm-3
04-01-2018,11:00,5.13863,R,ugm-3,38.90655,R,ugm-3,46.78566,R,ugm-3,33.52776,R,ugm-3,0.77169,R,ugm-3
04-01-2018,12:00,8.00380,R,ugm-3,32.84583,R,ugm-3,45.11815,R,ugm-3,33.67744,R,ugm-3,0.77169,R,ugm-3
04-01-2018,13:00,3.86175,R,ugm-3,16.61398,R,ugm-3,22.53525,R,ugm-3,47.54755,R,ugm-3,0.96461,R,ugm-3
04-01-2018,14:00,2.21117,R,ugm-3,10.47378,R,ugm-3,13.86418,R,ugm-3,55.72992,R,ugm-3,0.45015,R,ugm-3
04-01-2018,15:00,1.80631,R,ugm-3,12.66678,R,ugm-3,15.43641,R,ugm-3,51.63874,R,ugm-3,0.83600,R,ugm-3
04-01-2018,16:00,1.30801,R,ugm-3,11.14394,R,ugm-3,13.14954,R,ugm-3,57.42627,R,ugm-3,1.02892,R,ugm-3
04-01-2018,17:00,0.84087,R,ugm-3,8.33463,R,ugm-3,9.62394,R,ugm-3,61.11831,R,ugm-3,0.90030,R,ugm-3
04-01-2018,18:00,0.77858,R,ugm-3,7.95370,R,ugm-3,9.14750,R,ugm-3,64.31143,R,ugm-3,1.15753,R,ugm-3
04-01-2018,19:00,0.68515,R,ugm-3,7.04880,R,ugm-3,8.09935,R,ugm-3,66.60649,R,ugm-3,0.96461,R,ugm-3
04-01-2018,20:00,0.43601,R,ugm-3,5.85859,R,ugm-3,6.52712,R,ugm-3,66.40692,R,ugm-3,1.09323,R,ugm-3
04-01-2018,21:00,0.37372,R,ugm-3,5.95410,R,ugm-3,6.52712,R,ugm-3,64.01208,R,ugm-3,0.96461,R,ugm-3
04-01-2018,22:00,0.43601,R,ugm-3,7.00203,R,ugm-3,7.67056,R,ugm-3,63.26369,R,ugm-3,0.83600,R,ugm-3
04-01-2018,23:00,0.40486,R,ugm-3,7.28800,R,ugm-3,7.90878,R,ugm-3,60.02068,R,ugm-3,1.09323,R,ugm-3
04-01-2018,24:00,0.46715,R,ugm-3,8.38358,R,ugm-3,9.09986,R,ugm-3,56.62799,R,ugm-3,0.83600,R,ugm-3
05-01-2018,01:00,0.49841,R,ugm-3,10.10018,R,ugm-3,10.86440,R,ugm-3,53.08562,R,ugm-3,1.20058,R,ugm-3
05-01-2018,02:00,0.29074,R,ugm-3,10.22800,R,ugm-3,10.67380,R,ugm-3,50.09207,R,ugm-3,0.94331,R,ugm-3
05-01-2018,03:00,0.34266,R,ugm-3,8.09941,R,ugm-3,8.62481,R,ugm-3,51.28949,R,ugm-3,0.51453,R,ugm-3
05-01-2018,04:00,0.28036,R,ugm-3,6.52716,R,ugm-3,6.95703,R,ugm-3,53.03573,R,ugm-3,0.96475,R,ugm-3
05-01-2018,05:00,0.56072,R,ugm-3,7.38385,R,ugm-3,8.24361,R,ugm-3,52.23745,R,ugm-3,1.35065,R,ugm-3
05-01-2018,06:00,2.39862,R,ugm-3,17.62212,R,ugm-3,21.29995,R,ugm-3,41.06153,R,ugm-3,0.90043,R,ugm-3
05-01-2018,07:00,11.55697,R,ugm-3,35.88682,R,ugm-3,53.60726,R,ugm-3,23.49937,R,ugm-3,1.15770,R,ugm-3
05-01-2018,08:00,13.36372,R,ugm-3,47.45943,R,ugm-3,67.95018,R,ugm-3,16.26496,R,ugm-3,0.90043,R,ugm-3
05-01-2018,09:00,24.70263,R,ugm-3,62.04709,R,ugm-3,99.92393,R,ugm-3,6.03699,R,ugm-3,1.41497,R,ugm-3
05-01-2018,10:00,32.33460,R,ugm-3,64.64018,R,ugm-3,114.21920,R,ugm-3,4.24086,R,ugm-3,1.67223,R,ugm-3
05-01-2018,11:00,28.22268,R,ugm-3,57.60277,R,ugm-3,100.87695,R,ugm-3,5.23871,R,ugm-3,1.47928,R,ugm-3
05-01-2018,12:00,22.45977,R,ugm-3,52.04854,R,ugm-3,86.48638,R,ugm-3,8.48173,R,ugm-3,1.67223,R,ugm-3
05-01-2018,13:00,21.74330,R,ugm-3,49.19209,R,ugm-3,82.53135,R,ugm-3,11.02624,R,ugm-3,1.54360,R,ugm-3
05-01-2018,14:00,40.52727,R,ugm-3,60.65541,R,ugm-3,122.79636,R,ugm-3,7.28431,R,ugm-3,2.05813,R,ugm-3
05-01-2018,15:00,68.22039,R,ugm-3,70.32330,R,ugm-3,174.92644,R,ugm-3,4.04129,R,ugm-3,2.70130,R,ugm-3
05-01-2018,16:00,27.13240,R,ugm-3,64.42081,R,ugm-3,106.02324,R,ugm-3,5.08904,R,ugm-3,2.05813,R,ugm-3
05-01-2018,17:00,10.74705,R,ugm-3,51.90046,R,ugm-3,68.37904,R,ugm-3,14.31915,R,ugm-3,1.92950,R,ugm-3
05-01-2018,18:00,10.90280,R,ugm-3,42.51267,R,ugm-3,59.23006,R,ugm-3,18.36044,R,ugm-3,1.54360,R,ugm-3
05-01-2018,19:00,11.30776,R,ugm-3,45.84676,R,ugm-3,63.18509,R,ugm-3,14.31915,R,ugm-3,1.73655,R,ugm-3
05-01-2018,20:00,7.13355,R,ugm-3,38.76193,R,ugm-3,49.69989,R,ugm-3,17.96130,R,ugm-3,1.28633,R,ugm-3
05-01-2018,21:00,15.94924,R,ugm-3,45.40105,R,ugm-3,69.85621,R,ugm-3,11.67485,R,ugm-3,1.28633,R,ugm-3
05-01-2018,22:00,9.59447,R,ugm-3,37.56172,R,ugm-3,52.27303,R,ugm-3,15.76603,R,ugm-3,1.47928,R,ugm-3
05-01-2018,23:00,5.38910,R,ugm-3,30.57231,R,ugm-3,38.83548,R,ugm-3,17.66195,R,ugm-3,1.28633,R,ugm-3
05-01-2018,24:00,7.28930,R,ugm-3,28.03991,R,ugm-3,39.21669,R,ugm-3,18.85937,R,ugm-3,1.15770,R,ugm-3
06-01-2018,01:00,2.36805,R,ugm-3,17.65653,R,ugm-3,21.28749,R,ugm-3,29.00417,R,ugm-3,0.94345,R,ugm-3
06-01-2018,02:00,1.16325,R,ugm-3,12.70457,R,ugm-3,14.48820,R,ugm-3,34.39256,R,ugm-3,1.45806,R,ugm-3
06-01-2018,03:00,0.62317,R,ugm-3,11.91229,R,ugm-3,12.86781,R,ugm-3,35.97249,R,ugm-3,1.47950,R,ugm-3
06-01-2018,04:00,0.37390,R,ugm-3,12.29450,R,ugm-3,12.86781,R,ugm-3,33.02884,R,ugm-3,1.15787,R,ugm-3
06-01-2018,05:00,0.24927,R,ugm-3,9.48311,R,ugm-3,9.86532,R,ugm-3,36.47142,R,ugm-3,1.35085,R,ugm-3
06-01-2018,06:00,0.18695,R,ugm-3,5.14642,R,ugm-3,5.43307,R,ugm-3,52.08777,R,ugm-3,0.83624,R,ugm-3
06-01-2018,07:00,0.18695,R,ugm-3,6.00428,R,ugm-3,6.29093,R,ugm-3,43.05723,R,ugm-3,1.02922,R,ugm-3
06-01-2018,08:00,0.49854,R,ugm-3,8.81496,R,ugm-3,9.57937,R,ugm-3,34.37593,R,ugm-3,0.96489,R,ugm-3
06-01-2018,09:00,0.65433,R,ugm-3,12.67471,R,ugm-3,13.67801,R,ugm-3,34.12647,R,ugm-3,1.28652,R,ugm-3
06-01-2018,10:00,1.12171,R,ugm-3,13.10188,R,ugm-3,14.82181,R,ugm-3,41.31099,R,ugm-3,0.90056,R,ugm-3
06-01-2018,11:00,0.96592,R,ugm-3,7.86003,R,ugm-3,9.34108,R,ugm-3,52.13766,R,ugm-3,0.77191,R,ugm-3
06-01-2018,12:00,0.93476,R,ugm-3,8.57502,R,ugm-3,10.00830,R,ugm-3,54.18326,R,ugm-3,0.83624,R,ugm-3
06-01-2018,13:00,1.80720,R,ugm-3,9.95384,R,ugm-3,12.72483,R,ugm-3,55.48046,R,ugm-3,1.02922,R,ugm-3
06-01-2018,14:00,0.96592,R,ugm-3,7.24047,R,ugm-3,8.72151,R,ugm-3,60.91874,R,ugm-3,1.28652,R,ugm-3
06-01-2018,15:00,0.68549,R,ugm-3,8.33767,R,ugm-3,9.38873,R,ugm-3,61.66713,R,ugm-3,1.02922,R,ugm-3
06-01-2018,16:00,0.46738,R,ugm-3,9.33932,R,ugm-3,10.05595,R,ugm-3,62.66498,R,ugm-3,1.15787,R,ugm-3
06-01-2018,17:00,0.56085,R,ugm-3,18.91834,R,ugm-3,19.77830,R,ugm-3,50.19186,R,ugm-3,0.96489,R,ugm-3
06-01-2018,18:00,0.43622,R,ugm-3,19.34773,R,ugm-3,20.01659,R,ugm-3,48.04648,R,ugm-3,1.09354,R,ugm-3
06-01-2018,19:00,0.46738,R,ugm-3,19.01400,R,ugm-3,19.73064,R,ugm-3,47.14841,R,ugm-3,0.77191,R,ugm-3
06-01-2018,20:00,0.24927,R,ugm-3,16.63190,R,ugm-3,17.01410,R,ugm-3,48.39573,R,ugm-3,0.45028,R,ugm-3
06-01-2018,21:00,0.31159,R,ugm-3,20.63498,R,ugm-3,21.11274,R,ugm-3,40.11357,R,ugm-3,0.90056,R,ugm-3
06-01-2018,22:00,0.68549,R,ugm-3,26.78153,R,ugm-3,27.83259,R,ugm-3,33.67744,R,ugm-3,0.83624,R,ugm-3
06-01-2018,23:00,1.55793,R,ugm-3,18.72395,R,ugm-3,21.11274,R,ugm-3,44.15486,R,ugm-3,0.90056,R,ugm-3
06-01-2018,24:00,0.21811,R,ugm-3,13.20060,R,ugm-3,13.53503,R,ugm-3,47.84691,R,ugm-3,0.90056,R,ugm-3
07-01-2018,01:00,0.16622,R,ugm-3,10.29525,R,ugm-3,10.55012,R,ugm-3,50.22512,R,ugm-3,0.77202,R,ugm-3
07-01-2018,02:00,0.16622,R,ugm-3,9.78681,R,ugm-3,10.04168,R,ugm-3,54.01695,R,ugm-3,0.68624,R,ugm-3
07-01-2018,03:00,0.12467,R,ugm-3,7.95977,R,ugm-3,8.15092,R,ugm-3,53.13551,R,ugm-3,0.96503,R,ugm-3
07-01-2018,04:00,0.12467,R,ugm-3,6.76812,R,ugm-3,6.95927,R,ugm-3,52.48691,R,ugm-3,0.38601,R,ugm-3
07-01-2018,05:00,0.15583,R,ugm-3,6.95866,R,ugm-3,7.19760,R,ugm-3,48.49551,R,ugm-3,0.51468,R,ugm-3
07-01-2018,06:00,0.18700,R,ugm-3,9.72318,R,ugm-3,10.00990,R,ugm-3,50.59100,R,ugm-3,0.57902,R,ugm-3
07-01-2018,07:00,0.15583,R,ugm-3,9.72330,R,ugm-3,9.96224,R,ugm-3,48.14626,R,ugm-3,0.77202,R,ugm-3
07-01-2018,08:00,0.34283,R,ugm-3,12.43955,R,ugm-3,12.96521,R,ugm-3,47.19831,R,ugm-3,0.45035,R,ugm-3
07-01-2018,09:00,1.18432,R,ugm-3,20.34886,R,ugm-3,22.16479,R,ugm-3,40.01379,R,ugm-3,0.51468,R,ugm-3
07-01-2018,10:00,4.33211,R,ugm-3,27.15287,R,ugm-3,33.79534,R,ugm-3,33.77722,R,ugm-3,0.83636,R,ugm-3
07-01-2018,11:00,4.26977,R,ugm-3,22.19583,R,ugm-3,28.74272,R,ugm-3,37.21981,R,ugm-3,0.90069,R,ugm-3
07-01-2018,12:00,5.32943,R,ugm-3,20.76172,R,ugm-3,28.93339,R,ugm-3,39.36518,R,ugm-3,1.15803,R,ugm-3
07-01-2018,13:00,2.71146,R,ugm-3,13.66964,R,ugm-3,17.82716,R,ugm-3,49.19401,R,ugm-3,1.99439,R,ugm-3
07-01-2018,14:00,1.80764,R,ugm-3,10.38419,R,ugm-3,13.15587,R,ugm-3,54.53250,R,ugm-3,1.93006,R,ugm-3
07-01-2018,15:00,1.34015,R,ugm-3,11.53000,R,ugm-3,13.58487,R,ugm-3,55.18111,R,ugm-3,1.60838,R,ugm-3
07-01-2018,16:00,1.83881,R,ugm-3,22.82495,R,ugm-3,25.64442,R,ugm-3,43.45637,R,ugm-3,1.28671,R,ugm-3
07-01-2018,17:00,3.49062,R,ugm-3,44.84031,R,ugm-3,50.19251,R,ugm-3,22.70109,R,ugm-3,1.02936,R,ugm-3
07-01-2018,18:00,19.66589,R,ugm-3,61.60350,R,ugm-3,91.75744,R,ugm-3,9.57936,R,ugm-3,1.93006,R,ugm-3
07-01-2018,19:00,27.89377,R,ugm-3,64.09778,R,ugm-3,106.86763,R,ugm-3,9.28001,R,ugm-3,2.44474,R,ugm-3
07-01-2018,20:00,78.00906,R,ugm-3,78.15486,R,ugm-3,197.76708,R,ugm-3,4.19097,R,ugm-3,2.50907,R,ugm-3
07-01-2018,21:00,20.75671,R,ugm-3,57.35696,R,ugm-3,89.18347,R,ugm-3,7.43398,R,ugm-3,1.86572,R,ugm-3
07-01-2018,22:00,5.14243,R,ugm-3,45.59654,R,ugm-3,53.48148,R,ugm-3,18.26066,R,ugm-3,1.67272,R,ugm-3
07-01-2018,23:00,3.98928,R,ugm-3,42.50272,R,ugm-3,48.61953,R,ugm-3,14.86797,R,ugm-3,1.09370,R,ugm-3
07-01-2018,24:00,3.80228,R,ugm-3,36.64051,R,ugm-3,42.47059,R,ugm-3,20.10668,R,ugm-3,0.96503,R,ugm-3
08-01-2018,01:00,3.40835,R,ugm-3,33.16729,R,ugm-3,38.39335,R,ugm-3,20.75528,R,ugm-3,1.45848,R,ugm-3
08-01-2018,02:00,1.24696,R,ugm-3,30.82408,R,ugm-3,32.73605,R,ugm-3,24.14797,R,ugm-3,1.20110,R,ugm-3
08-01-2018,03:00,1.40283,R,ugm-3,27.45450,R,ugm-3,29.60547,R,ugm-3,25.69464,R,ugm-3,1.15820,R,ugm-3
08-01-2018,04:00,1.30931,R,ugm-3,26.26303,R,ugm-3,28.27060,R,ugm-3,29.53636,R,ugm-3,1.15820,R,ugm-3
08-01-2018,05:00,67.17977,R,ugm-3,45.25816,R,ugm-3,148.26570,R,ugm-3,13.47098,R,ugm-3,2.25206,R,ugm-3
08-01-2018,06:00,15.46226,R,ugm-3,39.31638,R,ugm-3,63.02484,R,ugm-3,12.77248,R,ugm-3,1.60861,R,ugm-3
08-01-2018,07:00,66.96155,R,ugm-3,62.13559,R,ugm-3,164.80853,R,ugm-3,7.98280,R,ugm-3,2.05903,R,ugm-3
08-01-2018,08:00,98.10428,R,ugm-3,84.98905,R,ugm-3,235.41351,R,ugm-3,4.39054,R,ugm-3,2.57378,R,ugm-3
08-01-2018,09:00,152.12866,R,ugm-3,93.73431,R,ugm-3,326.99499,R,ugm-3,2.44473,R,ugm-3,3.60329,R,ugm-3
08-01-2018,10:00,98.91480,R,ugm-3,76.69054,R,ugm-3,228.35778,R,ugm-3,4.44043,R,ugm-3,2.25206,R,ugm-3
08-01-2018,11:00,92.52415,R,ugm-3,73.14072,R,ugm-3,215.00910,R,ugm-3,5.08904,R,ugm-3,6.17707,R,ugm-3
08-01-2018,12:00,42.52121,R,ugm-3,59.37352,R,ugm-3,124.57179,R,ugm-3,11.72474,R,ugm-3,8.55782,R,ugm-3
08-01-2018,13:00,36.94108,R,ugm-3,57.15530,R,ugm-3,113.79750,R,ugm-3,8.83097,R,ugm-3,6.37011,R,ugm-3
08-01-2018,14:00,30.17634,R,ugm-3,53.41630,R,ugm-3,99.68604,R,ugm-3,14.96775,R,ugm-3,6.62749,R,ugm-3
08-01-2018,15:00,9.28982,R,ugm-3,40.24702,R,ugm-3,54.49122,R,ugm-3,31.08303,R,ugm-3,4.11805,R,ugm-3
08-01-2018,16:00,2.83683,R,ugm-3,34.31376,R,ugm-3,38.66350,R,ugm-3,32.52991,R,ugm-3,2.38075,R,ugm-3
08-01-2018,17:00,5.73600,R,ugm-3,37.01950,R,ugm-3,45.81458,R,ugm-3,22.35184,R,ugm-3,1.73730,R,ugm-3
08-01-2018,18:00,5.58013,R,ugm-3,44.50493,R,ugm-3,53.06100,R,ugm-3,11.87442,R,ugm-3,1.60861,R,ugm-3
08-01-2018,19:00,5.20604,R,ugm-3,48.41569,R,ugm-3,56.39817,R,ugm-3,9.67915,R,ugm-3,1.35123,R,ugm-3
08-01-2018,20:00,3.39796,R,ugm-3,41.79630,R,ugm-3,47.00642,R,ugm-3,13.27141,R,ugm-3,1.02951,R,ugm-3
08-01-2018,21:00,2.80565,R,ugm-3,37.36501,R,ugm-3,41.66695,R,ugm-3,13.77033,R,ugm-3,0.90082,R,ugm-3
08-01-2018,22:00,2.83683,R,ugm-3,31.83472,R,ugm-3,36.18446,R,ugm-3,17.21291,R,ugm-3,1.15820,R,ugm-3
08-01-2018,23:00,1.49635,R,ugm-3,26.26227,R,ugm-3,28.55664,R,ugm-3,18.95915,R,ugm-3,0.96517,R,ugm-3
08-01-2018,24:00,1.43400,R,ugm-3,22.49629,R,ugm-3,24.69506,R,ugm-3,22.80087,R,ugm-3,0.64345,R,ugm-3
09-01-2018,01:00,0.70678,R,ugm-3,15.63660,R,ugm-3,16.72032,R,ugm-3,25.01277,R,ugm-3,0.60064,R,ugm-3
09-01-2018,02:00,1.08096,R,ugm-3,14.74499,R,ugm-3,16.40244,R,ugm-3,27.54066,R,ugm-3,0.94386,R,ugm-3
09-01-2018,03:00,1.34081,R,ugm-3,14.91874,R,ugm-3,16.97462,R,ugm-3,24.14797,R,ugm-3,0.90095,R,ugm-3
09-01-2018,04:00,1.80853,R,ugm-3,17.58696,R,ugm-3,20.36001,R,ugm-3,20.35614,R,ugm-3,0.38612,R,ugm-3
09-01-2018,05:00,1.52790,R,ugm-3,16.82522,R,ugm-3,19.16797,R,ugm-3,20.60560,R,ugm-3,0.45048,R,ugm-3
09-01-2018,06:00,2.89989,R,ugm-3,20.82477,R,ugm-3,25.27120,R,ugm-3,17.01334,R,ugm-3,0.51483,R,ugm-3
09-01-2018,07:00,8.32548,R,ugm-3,25.95183,R,ugm-3,38.71739,R,ugm-3,13.92001,R,ugm-3,0.70789,R,ugm-3
09-01-2018,08:00,9.91574,R,ugm-3,32.71599,R,ugm-3,47.91992,R,ugm-3,8.88087,R,ugm-3,0.70789,R,ugm-3
09-01-2018,09:00,14.84244,R,ugm-3,38.60802,R,ugm-3,61.36611,R,ugm-3,5.68775,R,ugm-3,0.96531,R,ugm-3
09-01-2018,10:00,13.50163,R,ugm-3,35.32357,R,ugm-3,56.02578,R,ugm-3,7.88302,R,ugm-3,0.77225,R,ugm-3
09-01-2018,11:00,12.19200,R,ugm-3,32.84958,R,ugm-3,51.54372,R,ugm-3,9.72904,R,ugm-3,0.57919,R,ugm-3
09-01-2018,12:00,12.90918,R,ugm-3,32.84660,R,ugm-3,52.64039,R,ugm-3,8.73119,R,ugm-3,0.57919,R,ugm-3
09-01-2018,13:00,13.84462,R,ugm-3,34.08243,R,ugm-3,55.31055,R,ugm-3,7.28431,R,ugm-3,1.09402,R,ugm-3
09-01-2018,14:00,15.68434,R,ugm-3,33.64565,R,ugm-3,57.69463,R,ugm-3,5.78753,R,ugm-3,0.96531,R,ugm-3
09-01-2018,15:00,19.33258,R,ugm-3,36.68210,R,ugm-3,66.32498,R,ugm-3,3.99140,R,ugm-3,1.54449,R,ugm-3
09-01-2018,16:00,26.16135,R,ugm-3,39.46693,R,ugm-3,79.58044,R,ugm-3,2.34495,R,ugm-3,2.12368,R,ugm-3
09-01-2018,17:00,35.45346,R,ugm-3,42.47993,R,ugm-3,96.84115,R,ugm-3,1.69635,R,ugm-3,2.12368,R,ugm-3
09-01-2018,18:00,39.94361,R,ugm-3,43.08113,R,ugm-3,104.32715,R,ugm-3,1.59656,R,ugm-3,1.99497,R,ugm-3
09-01-2018,19:00,35.20401,R,ugm-3,40.52603,R,ugm-3,94.50476,R,ugm-3,1.69635,R,ugm-3,2.31674,R,ugm-3
09-01-2018,20:00,30.52677,R,ugm-3,38.59052,R,ugm-3,85.39759,R,ugm-3,1.64645,R,ugm-3,2.18803,R,ugm-3
09-01-2018,21:00,26.13017,R,ugm-3,36.12936,R,ugm-3,76.19506,R,ugm-3,1.74624,R,ugm-3,2.44544,R,ugm-3
09-01-2018,22:00,24.75818,R,ugm-3,36.85028,R,ugm-3,74.81229,R,ugm-3,1.79613,R,ugm-3,2.50980,R,ugm-3
09-01-2018,23:00,22.26365,R,ugm-3,35.23948,R,ugm-3,69.37660,R,ugm-3,1.54667,R,ugm-3,2.76721,R,ugm-3
09-01-2018,24:00,23.82273,R,ugm-3,38.14157,R,ugm-3,74.66925,R,ugm-3,1.59656,R,ugm-3,2.70286,R,ugm-3
10-01-2018,01:00,21.29187,R,ugm-3,35.58022,R,ugm-3,68.22730,R,ugm-3,1.79613,R,ugm-3,2.23126,R,ugm-3
10-01-2018,02:00,22.28993,R,ugm-3,40.47203,R,ugm-3,74.64944,R,ugm-3,1.86265,R,ugm-3,2.57453,R,ugm-3
10-01-2018,03:00,17.65312,R,ugm-3,35.16662,R,ugm-3,62.23436,R,ugm-3,2.24516,R,ugm-3,2.18835,R,ugm-3
10-01-2018,04:00,21.92605,R,ugm-3,36.67435,R,ugm-3,70.29383,R,ugm-3,1.64645,R,ugm-3,2.44580,R,ugm-3
10-01-2018,05:00,21.83249,R,ugm-3,29.42600,R,ugm-3,62.90201,R,ugm-3,1.44688,R,ugm-3,1.93089,R,ugm-3
10-01-2018,06:00,27.47774,R,ugm-3,29.35411,R,ugm-3,71.48606,R,ugm-3,1.49678,R,ugm-3,2.51016,R,ugm-3
10-01-2018,07:00,80.12522,R,ugm-3,32.41896,R,ugm-3,155.27593,R,ugm-3,1.54667,R,ugm-3,2.57453,R,ugm-3
10-01-2018,08:00,110.03573,R,ugm-3,39.15798,R,ugm-3,207.87707,R,ugm-3,1.44688,R,ugm-3,2.70325,R,ugm-3
10-01-2018,09:00,105.73161,R,ugm-3,44.13610,R,ugm-3,206.25564,R,ugm-3,1.54667,R,ugm-3,3.41125,R,ugm-3
10-01-2018,10:00,86.26951,R,ugm-3,42.78886,R,ugm-3,175.06693,R,ugm-3,1.69635,R,ugm-3,2.96070,R,ugm-3
10-01-2018,11:00,97.77835,R,ugm-3,42.45339,R,ugm-3,192.37810,R,ugm-3,1.84602,R,ugm-3,3.79742,R,ugm-3
10-01-2018,12:00,58.57344,R,ugm-3,37.47103,R,ugm-3,127.28239,R,ugm-3,2.04559,R,ugm-3,3.21816,R,ugm-3
10-01-2018,13:00,32.28089,R,ugm-3,39.72976,R,ugm-3,89.22643,R,ugm-3,5.03914,R,ugm-3,3.21816,R,ugm-3
10-01-2018,14:00,,,,,,,,,,,,,,,
10-01-2018,15:00,,,,,,,,,,,,,,,
10-01-2018,16:00,,,,,,,,,,,,,,,
10-01-2018,17:00,3.92985,R,ugm-3,37.37146,R,ugm-3,43.39714,R,ugm-3,25.54496,R,ugm-3,2.12398,R,ugm-3
10-01-2018,18:00,8.70181,R,ugm-3,45.55354,R,ugm-3,58.89612,R,ugm-3,17.46238,R,ugm-3,1.93089,R,ugm-3
10-01-2018,19:00,17.77788,R,ugm-3,54.00330,R,ugm-3,81.26234,R,ugm-3,8.78108,R,ugm-3,1.80217,R,ugm-3
10-01-2018,20:00,8.79537,R,ugm-3,43.45481,R,ugm-3,56.94086,R,ugm-3,13.42108,R,ugm-3,1.22290,R,ugm-3
10-01-2018,21:00,6.17548,R,ugm-3,39.93705,R,ugm-3,49.40598,R,ugm-3,13.87012,R,ugm-3,1.22290,R,ugm-3
10-01-2018,22:00,6.51856,R,ugm-3,37.74188,R,ugm-3,47.73686,R,ugm-3,14.11958,R,ugm-3,1.35163,R,ugm-3
10-01-2018,23:00,2.40157,R,ugm-3,29.55699,R,ugm-3,33.23935,R,ugm-3,15.36689,R,ugm-3,1.54471,R,ugm-3
10-01-2018,24:00,2.71347,R,ugm-3,40.57185,R,ugm-3,44.73244,R,ugm-3,7.13463,R,ugm-3,1.54471,R,ugm-3
11-01-2018,01:00,4.90596,R,ugm-3,43.08189,R,ugm-3,50.60425,R,ugm-3,3.39269,R,ugm-3,1.54413,R,ugm-3